カタログに戻る

DELTA 1 DEB

LostHEO
NORAD 24911·DEBRIS·🇺🇸 United States

打ち上げ Aug 3, 1981 から Vandenberg Space Force Base

Loading…

次のパス (今後24時間)

TLE

古いSource: Space-Track

元期: Jul 30, 2025, 18:21 UTC

1 24911U 81070M   25211.76487336 -.00000032  00000-0 -38123-3 0  9995
2 24911  90.6820  41.0083 6202668 314.9494  14.4837  3.52545013359400

AllMySatでDELTA 1 DEBをリアルタイム追跡

Download on the App Store